Flag Weather past 2 weeks in Niagara Falls, Ontario, Canada

Now
35 °F

Broken clouds.


Feels Like: 27 °F
Forecast: 27 / 33 °F
Wind: 10 mph from Northwest

Location: Niagara Falls International Airport

Current Time: Nov 27, 2014 at 3:12:26 PM

Latest Report: Nov 27, 2014 at 1:53 PM


Visibility: 10 mi

Pressure: 30.07 "Hg

Humidity: 64%

Dew point: 24 °F

Location of Niagara FallsLocation

Historic Weather in Niagara Falls — Graph

°F

Niagara Falls temperature yesterday

Maximum temperature yesterday: 34 °F (at 1:00 PM)
Minimum temperature yesterday: 28 °F (at 2:53 AM)
Average temperature yesterday: 31 °F

Past Weeks' High & Low Weather Summary

 TemperatureHumidityPressure
High64 °F (Nov 24, 11:53 AM)100% (Nov 17, 9:53 AM)30.49 "Hg (Nov 17, 9:53 AM)
Low15 °F (Nov 19, 5:53 AM)46% (Nov 15, 1:53 PM)29.20 "Hg (Nov 24, 12:53 PM)
Average32 °F72%30.02 "Hg
* Reported Nov 12 1:53 PM — Nov 27 1:53 PM, Niagara Falls, Weather by CustomWeather, © 2014

Note: Actual official high and low records may vary slightly from our data, if they occured in-between our weather recording intervals... More about our weather records

Advertising

Niagara Falls weather history for previous 24 hours

 ConditionsComfort  
Time TempWeatherWind HumidityBarometerVisibility
1:53 PM
Nov 27
35 °FBroken clouds.10 mph64%30.07 "Hg10 mi
12:53 PM34 °FBroken clouds.10 mph64%30.08 "Hg10 mi
11:00 AM30 °FBroken clouds.6 mph79%30.07 "Hg8 mi
9:53 AM30 °FLight snow. Mostly cloudy.5 mph72%30.11 "Hg4 mi
8:53 AM30 °FLight snow. Mostly cloudy.5 mph69%30.10 "Hg8 mi
7:53 AM28 °FMostly cloudy.No wind78%30.10 "Hg10 mi
7:00 AM29 °FOvercast.No wind72%30.04 "Hg10 mi
5:53 AM28 °FOvercast.No wind75%30.09 "Hg10 mi
4:53 AM28 °FOvercast.3 mph75%30.08 "Hg10 mi
3:53 AM29 °FOvercast.3 mph72%30.09 "Hg10 mi
2:53 AM29 °FOvercast.6 mph72%30.09 "Hg10 mi
1:53 AM29 °FOvercast.7 mph75%30.09 "Hg10 mi
12:53 AM30 °FOvercast.9 mph75%30.09 "Hg10 mi
11:53 PM
Nov 26
30 °FOvercast.8 mph75%30.10 "Hg10 mi
10:53 PM31 °FOvercast.8 mph73%30.10 "Hg10 mi
9:53 PM31 °FOvercast.7 mph79%30.10 "Hg10 mi
8:53 PM31 °FOvercast.7 mph76%30.10 "Hg10 mi
7:53 PM31 °FOvercast.10 mph79%30.10 "Hg10 mi
6:53 PM31 °FOvercast.9 mph85%30.11 "Hg10 mi
5:53 PM31 °FMostly cloudy.10 mph89%30.11 "Hg10 mi
4:53 PM32 °FOvercast.14 mph85%30.12 "Hg10 mi
3:53 PM33 °FLight snow. Mostly cloudy.12 mph88%30.13 "Hg8 mi
3:03 PM33 °FLight snow. Fog.7 mph88%30.10 "Hg2 mi
Weather by CustomWeather, © 2014

See weather overviewHow to use our weather pages